Precipitable_Water
1.06 1.01 1.03 1.01 0.97 0.96 1.06 1.08 0.99 1.03 1.18 1.38 1.37 1.41 1.41 1.35 1.41 1.36 1.21 1.41 1.46 1.44 1.46 1.39 1.27 1.19 1.11 1.16 1.17 1.15 1.12 1.09 0.96 1.09 1.29 1.41 1.39 1.41 1.45 1.47 1.50 1.50 1.52
0.99 1.07 1.05 1.08 1.11 1.06 1.05 1.10 1.15 1.02 1.04 1.27 1.41 1.40 1.36 1.32 1.39 1.37 1.19 1.23 1.32 1.35 1.39 1.39 1.34 1.31 1.24 1.13 1.18 1.12 1.11 1.15 1.07 0.97 1.18 1.27 1.27 1.41 1.47 1.49 1.53 1.58 1.55
0.99 1.00 1.03 1.02 1.04 1.11 1.14 1.13 1.12 1.10 1.07 1.08 1.26 1.32 1.37 1.37 1.37 1.36 1.30 1.16 1.17 1.32 1.35 1.37 1.35 1.38 1.28 1.23 1.18 1.17 1.17 1.16 1.18 1.13 1.09 1.31 1.35 1.40 1.40 1.50 1.52 1.57 1.64
1.14 1.04 0.96 0.98 1.06 1.14 1.18 1.13 1.09 1.13 1.13 1.12 1.16 1.21 1.34 1.39 1.34 1.32 1.30 1.25 1.18 1.14 1.24 1.34 1.36 1.36 1.31 1.32 1.29 1.18 1.19 1.20 1.19 1.19 1.22 1.26 1.34 1.43 1.42 1.35 1.41 1.60 1.60
1.34 1.36 1.33 1.28 1.26 1.28 1.24 1.22 1.21 1.21 1.23 1.20 1.18 1.27 1.33 1.36 1.33 1.28 1.27 1.22 1.22 1.18 1.15 1.22 1.30 1.33 1.34 1.36 1.33 1.29 1.23 1.14 1.17 1.13 1.14 1.22 1.26 1.28 1.27 1.37 1.38 1.47 1.60
1.31 1.38 1.50 1.60 1.58 1.51 1.45 1.37 1.39 1.36 1.30 1.34 1.34 1.30 1.30 1.30 1.32 1.30 1.29 1.26 1.24 1.23 1.18 1.27 1.28 1.27 1.29 1.33 1.34 1.34 1.33 1.20 1.10 1.11 1.12 1.11 1.14 1.16 1.28 1.34 1.38 1.42 1.44
1.27 1.32 1.45 1.54 1.62 1.66 1.64 1.58 1.50 1.46 1.47 1.41 1.41 1.43 1.35 1.32 1.35 1.38 1.40 1.43 1.40 1.41 1.42 1.42 1.42 1.45 1.49 1.48 1.45 1.41 1.39 1.36 1.33 1.22 1.13 1.13 1.14 1.18 1.24 1.31 1.46 1.61 1.55
1.24 1.30 1.40 1.47 1.50 1.64 1.71 1.67 1.64 1.54 1.47 1.47 1.45 1.47 1.43 1.43 1.48 1.50 1.54 1.60 1.60 1.59 1.61 1.67 1.68 1.68 1.77 1.80 1.76 1.64 1.61 1.57 1.53 1.56 1.45 1.38 1.38 1.42 1.41 1.52 1.60 1.70 1.78
1.24 1.24 1.37 1.45 1.47 1.56 1.59 1.63 1.62 1.61 1.54 1.47 1.52 1.53 1.47 1.44 1.54 1.57 1.62 1.63 1.60 1.57 1.63 1.71 1.75 1.73 1.81 1.84 1.79 1.74 1.75 1.79 1.96 1.96 1.95 1.89 1.93 1.95 1.83 1.75 1.65 1.63 1.58
1.23 1.19 1.30 1.37 1.45 1.49 1.56 1.58 1.66 1.60 1.57 1.61 1.53 1.56 1.58 1.55 1.65 1.68 1.71 1.70 1.57 1.58 1.69 1.73 1.81 1.83 1.90 1.94 1.89 1.82 1.66 1.70 1.85 1.85 1.90 1.96 2.02 2.00 1.99 1.94 1.83 1.59 1.63
1.29 1.21 1.26 1.33 1.34 1.44 1.57 1.64 1.64 1.67 1.63 1.58 1.58 1.64 1.65 1.67 1.67 1.69 1.73 1.71 1.67 1.70 1.67 1.68 1.78 1.85 1.88 1.92 1.94 1.87 1.79 1.93 1.89 1.83 1.81 1.88 1.96 1.94 1.97 2.06 2.05 1.84 1.71
1.32 1.36 1.32 1.32 1.34 1.37 1.39 1.56 1.66 1.65 1.64 1.58 1.54 1.56 1.64 1.68 1.68 1.69 1.72 1.79 1.87 1.75 1.68 1.79 1.83 1.86 1.87 1.86 1.83 1.83 1.90 1.93 1.92 1.85 1.75 1.68 1.69 1.78 2.03 2.09 2.16 1.98 1.97
1.05 1.08 1.21 1.29 1.28 1.28 1.27 1.37 1.46 1.62 1.56 1.52 1.53 1.49 1.51 1.66 1.69 1.72 1.75 1.83 1.88 1.84 1.89 1.87 1.88 1.89 1.86 1.80 1.75 1.75 1.79 1.80 1.85 1.79 1.72 1.71 1.84 1.98 2.10 2.06 2.21 1.99 1.98
0.93 0.94 1.09 1.13 1.16 1.22 1.26 1.31 1.34 1.37 1.49 1.52 1.50 1.50 1.55 1.60 1.64 1.71 1.73 1.78 1.83 1.83 1.87 1.88 1.87 1.85 1.78 1.71 1.72 1.71 1.73 1.72 1.71 1.68 1.70 1.84 1.97 2.01 2.02 2.11 1.90 1.80 1.75
0.85 0.89 0.92 1.01 1.06 1.11 1.17 1.17 1.26 1.40 1.46 1.54 1.60 1.65 1.58 1.50 1.57 1.68 1.72 1.72 1.78 1.83 1.83 1.80 1.68 1.57 1.52 1.53 1.56 1.63 1.67 1.73 1.72 1.83 1.79 1.85 1.79 1.93 1.98 1.85 1.85 1.76 1.60
1.04 0.93 1.07 1.07 1.12 1.17 1.09 1.07 1.23 1.35 1.42 1.61 1.84 1.84 1.77 1.77 1.78 1.76 1.80 1.83 1.84 1.85 1.73 1.54 1.47 1.46 1.42 1.47 1.50 1.52 1.59 1.63 1.60 1.72 1.67 1.78 1.85 1.83 1.66 1.77 1.78 1.68 1.53
1.29 1.19 1.14 1.24 1.22 1.18 1.11 1.05 1.00 1.21 1.43 1.60 1.64 1.78 1.89 1.82 1.79 1.79 1.79 1.80 1.80 1.74 1.51 1.46 1.45 1.47 1.48 1.48 1.43 1.39 1.39 1.51 1.59 1.59 1.65 1.68 1.71 1.71 1.64 1.68 1.59 1.56 1.52
1.34 1.34 1.29 1.24 1.23 1.25 1.23 1.21 1.27 1.22 1.21 1.37 1.58 1.61 1.68 1.74 1.76 1.77 1.78 1.80 1.61 1.60 1.56 1.47 1.41 1.37 1.32 1.29 1.31 1.33 1.35 1.40 1.38 1.44 1.52 1.58 1.59 1.61 1.57 1.55 1.50 1.44 1.38
1.30 1.34 1.30 1.38 1.34 1.39 1.39 1.38 1.44 1.37 1.30 1.32 1.39 1.51 1.60 1.67 1.68 1.67 1.64 1.48 1.36 1.33 1.34 1.30 1.29 1.27 1.25 1.28 1.29 1.31 1.35 1.34 1.37 1.41 1.46 1.51 1.51 1.59 1.56 1.50 1.49 1.29 1.02
1.42 1.42 1.42 1.41 1.43 1.44 1.54 1.50 1.42 1.35 1.36 1.37 1.40 1.47 1.58 1.60 1.50 1.43 1.35 1.25 1.20 1.22 1.24 1.23 1.26 1.31 1.34 1.34 1.34 1.36 1.34 1.32 1.34 1.41 1.43 1.47 1.47 1.48 1.46 1.43 1.28 1.07 0.99
1.51 1.49 1.48 1.51 1.53 1.54 1.62 1.59 1.55 1.47 1.43 1.42 1.44 1.46 1.44 1.38 1.30 1.24 1.20 1.21 1.21 1.20 1.25 1.29 1.33 1.36 1.34 1.35 1.36 1.32 1.33 1.33 1.38 1.42 1.43 1.44 1.43 1.34 1.25 1.12 1.03 1.00 0.91
1.46 1.58 1.47 1.45 1.52 1.52 1.56 1.62 1.60 1.52 1.48 1.34 1.28 1.30 1.27 1.21 1.19 1.18 1.19 1.21 1.26 1.33 1.42 1.41 1.40 1.39 1.39 1.39 1.38 1.34 1.33 1.33 1.41 1.41 1.46 1.48 1.40 1.27 1.10 1.04 1.00 0.94 0.88
1.45 1.53 1.60 1.53 1.55 1.52 1.49 1.46 1.41 1.35 1.28 1.22 1.17 1.15 1.18 1.16 1.18 1.20 1.24 1.31 1.38 1.40 1.45 1.48 1.45 1.45 1.52 1.50 1.50 1.48 1.41 1.36 1.35 1.37 1.33 1.29 1.22 1.15 1.08 1.05 0.97 0.91 0.86
1.47 1.47 1.42 1.47 1.45 1.39 1.36 1.34 1.33 1.29 1.25 1.22 1.22 1.24 1.27 1.30 1.31 1.32 1.36 1.40 1.46 1.49 1.55 1.55 1.55 1.52 1.52 1.51 1.51 1.50 1.47 1.46 1.42 1.35 1.29 1.23 1.20 1.19 1.13 1.07 1.02 0.96 0.89
1.49 1.42 1.38 1.34 1.36 1.33 1.31 1.31 1.31 1.29 1.27 1.30 1.32 1.33 1.35 1.38 1.42 1.46 1.52 1.55 1.53 1.52 1.54 1.56 1.57 1.52 1.47 1.44 1.39 1.35 1.34 1.31 1.28 1.28 1.29 1.23 1.13 1.12 1.07 1.02 0.98 0.91 0.86
1.51 1.49 1.41 1.42 1.36 1.35 1.31 1.28 1.28 1.29 1.29 1.32 1.34 1.37 1.38 1.38 1.41 1.43 1.44 1.43 1.41 1.42 1.40 1.43 1.40 1.44 1.38 1.30 1.23 1.21 1.18 1.20 1.21 1.26 1.23 1.15 1.08 1.07 1.07 1.06 0.98 0.86 0.80
Wind_Speed
28 28 26 25 24 23 21 20 20 19 18 15 15 15 15 14 12 11 13 14 14 13 12 11 10 10 10 9 9 9 9 10 11 12 12 12 12 13 14 15 16 16 18
29 27 27 25 24 23 23 21 20 20 20 19 16 17 16 15 14 13 13 15 15 15 15 15 14 13 13 13 13 13 13 14 14 14 14 15 15 17 18 19 19 20 22
27 27 26 26 25 24 23 23 22 21 21 20 20 18 18 17 16 16 15 15 16 17 17 17 17 16 17 17 17 17 17 18 19 19 20 19 19 20 21 22 23 24 25
26 26 25 25 25 24 23 23 23 22 22 22 21 20 19 19 18 18 17 16 16 17 18 19 19 19 20 20 20 21 21 22 23 24 24 24 24 25 26 26 26 26 27
26 26 25 24 24 23 23 23 23 23 22 22 22 21 20 20 20 19 18 18 17 17 18 20 21 22 24 24 25 26 26 27 27 27 28 28 29 29 29 29 28 30 32
26 24 24 24 24 24 23 22 22 22 22 21 20 21 20 20 19 19 18 18 17 18 18 19 20 23 25 27 28 29 30 31 31 31 31 31 31 32 31 31 33 31 29
26 25 24 24 23 23 24 23 23 22 22 22 22 21 20 20 20 20 20 19 18 19 20 21 22 23 25 27 29 30 31 33 34 34 34 34 34 34 34 34 33 33 35
26 25 25 24 23 24 24 24 24 24 23 23 23 23 22 21 21 21 21 22 21 22 23 23 24 26 27 27 28 29 31 33 35 36 37 38 38 37 36 36 34 31 30
27 26 26 25 24 24 26 25 25 24 24 25 24 24 24 24 24 24 24 24 25 26 26 27 27 28 28 29 31 32 33 36 37 39 40 41 40 39 38 37 36 32 29
29 27 27 26 26 25 26 27 26 26 25 25 25 26 26 26 26 26 26 27 28 29 30 31 32 33 32 32 34 35 37 38 39 40 42 43 42 41 40 41 38 33 29
25 27 27 27 27 27 27 28 28 27 26 26 26 26 26 26 27 27 28 29 30 30 31 32 32 32 34 35 36 38 40 40 40 40 41 42 42 43 44 43 40 33 32
26 28 28 28 27 27 27 27 28 28 28 27 27 27 27 27 27 28 29 30 31 31 31 31 31 31 32 33 35 38 40 40 41 42 42 42 42 43 44 44 44 31 23
27 28 28 29 29 28 28 28 28 28 28 28 28 27 27 28 28 28 29 30 31 31 31 31 31 31 32 33 35 37 38 39 42 43 43 45 45 45 43 41 39 27 20
26 27 27 28 29 29 29 29 29 29 29 29 29 28 28 27 28 28 27 29 30 30 31 30 30 31 33 34 37 38 40 41 42 43 45 46 44 43 38 31 18 14 15
28 28 29 29 28 28 28 27 29 29 29 29 29 29 28 28 28 28 28 28 28 28 27 28 29 30 31 34 36 38 40 42 42 42 42 40 42 40 24 17 20 16 13
27 27 28 29 29 28 27 26 26 27 28 28 30 30 29 28 27 28 28 28 27 26 27 27 29 30 32 35 37 39 40 39 37 34 33 31 22 9 18 20 17 15 14
27 28 28 29 30 29 28 27 27 26 26 27 27 28 29 28 27 26 24 23 25 26 27 27 29 31 34 36 37 37 36 33 29 26 22 18 18 19 17 15 12 12 14
29 30 28 29 31 31 30 29 28 27 28 28 27 27 27 26 26 25 25 25 25 26 28 29 31 32 33 34 33 32 29 26 23 21 20 19 17 15 12 10 13 13 12
30 30 30 30 31 32 31 29 29 27 26 27 28 27 27 26 26 26 27 27 27 28 29 30 30 31 31 32 31 28 25 23 21 18 16 12 9 4 5 11 12 11 12
29 29 29 30 29 31 31 30 28 27 25 25 25 26 27 27 27 27 27 27 27 28 28 29 30 30 30 30 28 23 21 18 16 13 10 9 8 8 8 12 13 13 13
30 29 28 28 29 27 28 28 28 27 27 25 25 26 26 26 26 26 27 28 28 29 29 29 30 29 28 26 22 19 17 16 14 12 11 11 9 8 9 11 12 13 14
32 30 29 29 29 28 28 28 28 27 26 26 26 26 26 26 27 28 29 29 29 29 29 28 28 27 25 22 20 19 19 17 17 16 15 15 15 13 13 14 15 15 16
33 33 32 31 29 29 28 28 27 26 26 26 27 27 27 28 28 28 28 28 27 27 27 27 26 25 24 22 20 19 18 18 17 16 16 16 17 17 16 17 16 17 17
27 27 27 26 26 26 26 26 25 25 25 25 25 25 26 26 26 26 27 27 27 27 27 26 25 23 22 21 20 20 19 19 18 18 19 19 19 19 20 20 20 20 20
26 26 25 25 25 25 26 26 25 25 25 24 24 24 24 24 25 26 27 27 27 26 25 24 24 23 23 23 22 21 22 22 21 21 21 21 22 23 22 21 21 21 22
23 24 23 23 24 24 24 24 24 24 23 23 23 23 23 23 25 25 26 26 26 25 25 26 24 23 22 22 21 21 21 22 22 23 23 23 22 23 23 24 24 23 23
Wind_Direction
208 210 211 214 218 222 225 228 231 233 235 238 237 236 235 237 241 242 240 236 237 240 242 247 253 258 264 273 285 291 295 298 304 306 308 303 300 302 305 305 307 305 306
210 211 214 216 219 222 225 229 232 234 235 236 239 237 237 238 241 244 244 240 239 241 244 248 253 259 263 270 277 282 285 290 294 299 301 300 294 295 299 302 303 301 302
209 211 214 217 221 224 226 229 232 235 236 237 237 237 237 239 243 244 247 246 244 246 248 251 254 258 262 266 272 277 282 284 286 292 293 294 290 291 293 295 298 299 299
207 209 214 218 221 225 229 232 234 236 236 236 238 240 241 242 243 245 246 247 250 250 252 255 256 259 263 267 271 274 279 283 284 286 288 288 288 288 290 291 293 295 298
208 212 216 220 223 227 230 232 234 235 236 237 238 240 242 243 244 244 245 247 251 254 257 259 261 262 265 270 273 276 278 281 285 285 286 285 285 287 287 289 290 292 293
211 215 219 221 225 227 230 230 231 232 233 234 236 239 241 242 242 240 243 247 252 255 260 263 266 268 270 271 274 276 278 280 282 284 284 285 285 284 286 285 287 294 299
215 219 221 222 225 227 228 229 230 231 234 235 237 239 240 240 238 240 243 249 254 260 263 267 271 274 275 274 277 278 279 281 281 282 283 284 285 282 282 282 289 291 291
219 220 222 225 228 229 229 230 232 233 235 237 239 238 240 241 242 244 247 252 258 263 266 269 273 275 278 276 281 281 281 283 282 282 284 285 285 283 279 279 286 296 296
221 225 225 227 230 231 231 232 233 236 238 239 239 239 242 245 246 248 251 256 261 266 269 272 276 277 280 278 281 283 285 285 285 284 284 285 284 282 280 287 280 288 291
228 226 228 229 232 234 233 234 237 239 240 241 241 243 246 247 248 251 254 260 265 269 273 275 277 277 279 280 281 283 286 287 287 287 286 285 281 281 280 280 280 283 290
226 227 229 232 234 237 237 237 238 240 241 242 244 245 248 250 251 254 258 262 268 273 275 277 279 280 279 281 283 285 287 290 288 287 288 286 282 280 278 277 272 271 287
231 232 234 236 238 238 237 238 239 239 242 243 245 248 250 251 253 257 260 264 269 273 276 278 281 282 283 284 286 289 290 290 289 290 289 288 284 282 280 282 274 274 280
236 238 237 237 238 239 239 239 240 241 242 244 247 249 251 253 257 260 263 266 270 272 276 278 280 282 285 288 291 294 294 291 291 291 290 289 286 284 282 279 264 266 273
239 240 240 239 239 240 241 241 242 244 244 246 248 249 253 256 259 262 266 269 272 274 276 279 281 284 287 291 294 294 296 295 293 292 292 291 288 283 276 276 249 268 264
245 245 242 239 239 239 241 244 243 244 246 247 248 250 254 258 261 263 266 271 272 273 276 280 283 287 290 294 296 297 298 297 297 295 296 294 292 278 267 263 262 267 255
245 245 243 239 238 238 240 243 245 246 248 250 250 251 256 260 262 265 268 269 269 271 278 282 285 289 293 296 299 300 300 300 300 299 302 303 304 249 276 283 267 249 221
247 244 243 239 238 237 239 243 246 248 249 252 253 253 254 256 261 266 266 268 271 273 278 283 288 292 296 298 301 302 301 301 301 301 300 302 291 286 285 264 250 216 200
248 245 245 241 238 239 239 242 245 248 249 251 253 253 253 255 259 261 265 269 273 277 280 285 290 294 296 299 302 303 302 300 300 298 297 295 293 287 273 232 199 199 208
248 245 243 242 240 239 238 241 244 247 250 250 249 251 253 255 257 262 267 270 273 277 281 287 290 294 296 298 300 299 297 296 296 294 295 292 288 262 219 205 205 217 217
248 245 244 240 241 238 238 239 241 245 247 248 249 250 251 254 259 263 267 270 273 277 282 286 289 292 295 297 298 294 293 293 291 286 283 279 265 255 232 219 232 231 234
245 242 240 238 237 237 236 237 239 242 245 249 252 251 252 254 259 263 266 270 274 278 283 285 288 291 292 293 292 288 287 288 279 276 269 265 251 250 239 236 236 240 241
239 239 236 235 234 235 236 238 242 244 247 248 249 252 255 256 260 264 268 272 274 277 280 283 285 287 289 286 283 281 280 278 272 265 269 259 249 252 250 246 248 250 249
236 234 234 234 233 235 238 241 242 245 246 250 252 252 256 259 262 265 267 270 274 276 279 281 283 282 284 282 279 277 274 273 272 262 260 253 253 255 257 255 253 252 248
226 223 226 229 232 234 237 239 242 246 249 250 251 252 255 259 262 265 267 269 272 275 277 280 280 279 277 277 278 274 271 270 269 264 260 255 256 259 261 258 255 250 249
224 226 228 228 232 234 238 240 242 244 247 249 252 255 259 261 264 267 268 269 272 273 274 275 275 275 275 276 275 273 269 269 266 265 262 258 261 260 259 258 257 256 252
217 219 226 230 232 235 237 238 240 242 245 249 253 256 259 262 265 269 271 271 272 271 273 273 273 272 273 272 272 271 271 271 268 265 261 261 262 259 258 257 258 257 253